Project,Study,Ord_Occ,Event_Num,Cast_ID,Date_Time_UTC,Date_Time_PST,Lat_Dec,Lon_Dec,Sta_ID,Line,Sta,Depth,Pressure,PrQ,Temp1,Temp1Q,Temp2,Temp2Q,TempAve,Salt1,Salt1Q,Salt1_Corr,Salt2,Salt2Q,Salt2_Corr,SaltAve_Corr,Ox1,Ox1Q,Ox1_CruiseCorr,Ox1_StaCorr,Ox2,Ox2Q,Ox2_CruiseCorr,Ox2_StaCorr,OxAve_StaCorr,Ox1uM,Ox1uM_CruiseCorr,Ox1uM_StaCorr,Ox2uM,Ox2uM_CruiseCorr,Ox2uM_StaCorr,OxAveuM_StaCorr,FluorV,FluorQ,EstChl_CruiseCorr,EstChl_StaCorr,ISUSV,ISUSQ,EstNO3_CruiseCorr,EstNO3_StaCorr,SigThetaTS1,SigThetaTS1Q,SigThetaTS2,SigThetaTS2Q,BAT,XMiss,TransQ,pH,pHQ,SPAR,SPARQ,PAR,PARQ,PoT1,PoT2,DynHt,SVA,OxSat1,OxSat2,BTL_Depth,BTL_Temp,SaltB,OxB,OxBuM,Chl-a,Phaeo,NO3,NO2,NH4,PO4,SIL
CalCOFI,2007SR,044,46,2007_044u,21-Jul-2020 09:42:22,21-Jul-2020 01:42:22,31.98874,-122.39338,086.7 090.0,086.7,090.0,516.000,520.273,,5.6506,,5.6525,,5.6516,34.2459,,34.2461,34.2471,,34.2487,34.2474,0.3765,,0.3757,0.4067,,,,,,16.372,16.6026,17.5009,,,,,0.0328,,,,,,,,27.0056,,27.0063,,0.6342,85.3378,,7.521,,1.9043E+00,,1.0000E-12,,5.6067,5.6086,1.0076,,5.378,,,,,,,,,,,,,
CalCOFI,2007SR,044,46,2007_044u,21-Jul-2020 09:43:51,21-Jul-2020 01:43:51,31.98873,-122.39339,086.7 090.0,086.7,090.0,515.000,519.264,,5.6514,,5.6498,,5.6506,34.2457,,34.2459,34.2475,,34.2491,34.2475,0.3653,,0.3640,0.3951,,,,,,15.886,16.0953,16.9949,,,,,0.0326,,,,,,,,27.0053,,27.0069,,0.6346,85.3300,,7.525,,1.9043E+00,,1.0000E-12,,5.6076,5.6059,1.0139,,5.219,,515,5.651,34.2483,0.376,16.38,,,,,,,83.02
CalCOFI,2007SR,044,46,2007_044u,21-Jul-2020 09:44:17,21-Jul-2020 01:44:17,31.98872,-122.39338,086.7 090.0,086.7,090.0,514.000,518.254,,5.6521,,5.6514,,5.6518,34.2454,,34.2456,34.2469,,34.2485,34.2471,0.3674,,0.3662,0.3972,,,,,,15.974,16.1872,17.0865,,,,,0.0330,,,,,,,,27.0050,,27.0063,,0.6337,85.3488,,7.524,,1.9043E+00,,1.0000E-12,,5.6083,5.6076,1.0160,,5.247,,,,,,,,,,,,,
CalCOFI,2007SR,044,46,2007_044u,21-Jul-2020 09:44:17,21-Jul-2020 01:44:17,31.98872,-122.39338,086.7 090.0,086.7,090.0,513.000,517.245,,5.6446,,5.6438,,5.6442,34.2464,,34.2466,34.2477,,34.2493,34.2480,0.3674,,0.3662,0.3972,,,,,,15.977,16.1903,17.0897,,,,,0.0328,,,,,,,,27.0067,,27.0078,,0.6339,85.3454,,7.524,,1.9043E+00,,1.0000E-12,,5.6010,5.6001,1.0159,,5.248,,,,,,,,,,,,,
CalCOFI,2007SR,044,46,2007_044u,21-Jul-2020 09:44:18,21-Jul-2020 01:44:18,31.98872,-122.39339,086.7 090.0,086.7,090.0,512.000,516.235,,5.6425,,5.6424,,5.6425,34.2467,,34.2469,34.2480,,34.2496,34.2483,0.3688,,0.3677,0.3987,,,,,,16.036,16.2519,17.1511,,,,,0.0335,,,,,,,,27.0071,,27.0082,,0.6341,85.3404,,7.524,,1.9043E+00,,1.0000E-12,,5.5990,5.5989,1.0159,,5.267,,,,,,,,,,,,,
CalCOFI,2007SR,044,46,2007_044u,21-Jul-2020 09:44:19,21-Jul-2020 01:44:19,31.98872,-122.39340,086.7 090.0,086.7,090.0,511.000,515.226,,5.6451,,5.6457,,5.6454,34.2454,,34.2456,34.2465,,34.2481,34.2469,0.3754,,0.3746,0.4056,,,,,,16.325,16.5536,17.4519,,,,,0.0325,,,,,,,,27.0057,,27.0066,,0.6342,85.3384,,7.524,,1.9043E+00,,1.0000E-12,,5.6016,5.6023,1.0159,,5.362,,,,,,,,,,,,,
CalCOFI,2007SR,044,46,2007_044u,21-Jul-2020 09:44:20,21-Jul-2020 01:44:20,31.98872,-122.39340,086.7 090.0,086.7,090.0,510.000,514.216,,5.6570,,5.6576,,5.6573,34.2444,,34.2446,34.2459,,34.2475,34.2461,0.3746,,0.3737,0.4047,,,,,,16.289,16.5160,17.4145,,,,,0.0326,,,,,,,,27.0036,,27.0046,,0.6340,85.3433,,7.524,,1.9043E+00,,1.0000E-12,,5.6136,5.6142,1.0159,,5.351,,,,,,,,,,,,,
CalCOFI,2007SR,044,46,2007_044u,21-Jul-2020 09:44:21,21-Jul-2020 01:44:21,31.98872,-122.39340,086.7 090.0,086.7,090.0,509.000,513.207,,5.6634,,5.6637,,5.6636,34.2433,,34.2435,34.2445,,34.2461,34.2448,0.3809,,0.3803,0.4113,2.0550,,0.9647,0.5881,0.4997,16.565,16.8041,17.7018,89.363,,27.8463,22.7741,0.0333,,,,,,,,27.0019,,27.0028,,0.6342,85.3386,,7.524,,1.9043E+00,,1.0000E-12,,5.6201,5.6203,1.0159,,5.443,29.364,,,,,,,,,,,,
CalCOFI,2007SR,044,46,2007_044u,21-Jul-2020 09:44:22,21-Jul-2020 01:44:22,31.98872,-122.39340,086.7 090.0,086.7,090.0,508.000,512.197,,5.6649,,5.6653,,5.6651,34.2429,,34.2431,34.2443,,34.2459,34.2445,0.3832,,0.3827,0.4137,2.0452,,0.9413,0.5633,0.4885,16.663,16.9064,17.8038,88.936,,26.7785,22.2912,0.0332,,,,,,,,27.0014,,27.0024,,0.6342,85.3384,,7.524,,1.9043E+00,,1.0000E-12,,5.6216,5.6221,1.0159,,5.475,29.224,,,,,,,,,,,,
CalCOFI,2007SR,044,46,2007_044u,21-Jul-2020 09:44:24,21-Jul-2020 01:44:24,31.98872,-122.39339,086.7 090.0,086.7,090.0,507.000,511.188,,5.6893,,5.6883,,5.6888,34.2387,,34.2389,34.2404,,34.2420,34.2405,0.3785,,0.3778,0.4088,2.0499,,0.9525,0.5752,0.4920,16.461,16.6955,17.5935,89.140,,27.2887,22.4411,0.0322,,,,,,,,26.9950,,26.9965,,0.6342,85.3384,,7.524,,1.9043E+00,,1.0000E-12,,5.6461,5.6450,1.0159,,5.412,29.306,,,,,,,,,,,,
CalCOFI,2007SR,044,46,2007_044u,21-Jul-2020 09:44:25,21-Jul-2020 01:44:25,31.98872,-122.39338,086.7 090.0,086.7,090.0,506.000,510.178,,5.6877,,5.6876,,5.6877,34.2380,,34.2382,34.2391,,34.2407,34.2395,0.3802,,0.3796,0.4105,2.0494,,0.9513,0.5740,0.4923,16.534,16.7717,17.6695,89.121,,27.2411,22.4553,0.0329,,,,,,,,26.9947,,26.9956,,0.6342,85.3384,,7.524,,1.9043E+00,,1.0000E-12,,5.6446,5.6445,1.0159,,5.436,29.300,,,,,,,,,,,,
CalCOFI,2007SR,044,46,2007_044u,21-Jul-2020 09:44:25,21-Jul-2020 01:44:25,31.98872,-122.39338,086.7 090.0,086.7,090.0,505.000,509.169,,5.6787,,5.6769,,5.6778,34.2399,,34.2401,34.2416,,34.2432,34.2417,0.3828,,0.3823,0.4132,2.0475,,0.9468,0.5692,0.4912,16.645,16.8876,17.7850,89.036,,27.0286,22.4068,0.0333,,,,,,,,26.9973,,26.9988,,0.6342,85.3384,,7.524,,1.9043E+00,,1.0000E-12,,5.6357,5.6338,1.0159,,5.471,29.265,,,,,,,,,,,,
CalCOFI,2007SR,044,46,2007_044u,21-Jul-2020 09:44:26,21-Jul-2020 01:44:26,31.98872,-122.39338,086.7 090.0,086.7,090.0,504.000,508.159,,5.6720,,5.6723,,5.6722,34.2419,,34.2421,34.2429,,34.2445,34.2433,0.3870,,0.3867,0.4176,2.0457,,0.9425,0.5646,0.4911,16.831,17.0818,17.9787,88.961,,26.8410,22.4099,0.0328,,,,,,,,26.9997,,27.0004,,0.6342,85.3384,,7.524,,1.9043E+00,,1.0000E-12,,5.6290,5.6294,1.0159,,5.531,29.237,,,,,,,,,,,,
CalCOFI,2007SR,044,46,2007_044u,21-Jul-2020 09:44:27,21-Jul-2020 01:44:27,31.98872,-122.39338,086.7 090.0,086.7,090.0,503.000,507.150,,5.6767,,5.6766,,5.6767,34.2411,,34.2413,34.2424,,34.2440,34.2427,0.3859,,0.3855,0.4165,2.0461,,0.9435,0.5656,0.4911,16.780,17.0285,17.9256,88.978,,26.8835,22.4046,0.0334,,,,,,,,26.9985,,26.9995,,0.6342,85.3384,,7.524,,1.9043E+00,,1.0000E-12,,5.6338,5.6337,1.0159,,5.515,29.246,,,,,,,,,,,,
CalCOFI,2007SR,044,46,2007_044u,21-Jul-2020 09:44:28,21-Jul-2020 01:44:28,31.98872,-122.39340,086.7 090.0,086.7,090.0,502.000,506.140,,5.6829,,5.6829,,5.6829,34.2395,,34.2397,34.2408,,34.2424,34.2411,0.3913,,0.3912,0.4221,2.0403,,0.9296,0.5509,0.4865,17.016,17.2749,18.1712,88.726,,26.2534,22.2123,0.0329,,,,,,,,26.9965,,26.9975,,0.6342,85.3384,,7.524,,1.9043E+00,,1.0000E-12,,5.6401,5.6401,1.0159,,5.593,29.167,,,,,,,,,,,,
CalCOFI,2007SR,044,46,2007_044u,21-Jul-2020 09:44:29,21-Jul-2020 01:44:29,31.98872,-122.39340,086.7 090.0,086.7,090.0,501.000,505.131,,5.6897,,5.6903,,5.6900,34.2379,,34.2381,34.2392,,34.2408,34.2395,0.3897,,0.3895,0.4204,2.0407,,0.9306,0.5520,0.4862,16.948,17.2039,18.1005,88.741,,26.2909,22.1957,0.0332,,,,,,,,26.9943,,26.9953,,0.6342,85.3384,,7.524,,1.9043E+00,,1.0000E-12,,5.6469,5.6476,1.0159,,5.572,29.176,,,,,,,,,,,,
CalCOFI,2007SR,044,46,2007_044u,21-Jul-2020 09:44:30,21-Jul-2020 01:44:30,31.98872,-122.39340,086.7 090.0,086.7,090.0,500.000,504.121,,5.6938,,5.6940,,5.6939,34.2371,,34.2373,34.2384,,34.2400,34.2387,0.3975,,0.3976,0.4285,2.0424,,0.9346,0.5563,0.4924,17.284,17.5547,18.4502,88.817,,26.4809,22.4656,0.0325,,,,,,,,26.9932,,26.9942,,0.6344,85.3351,,7.524,,1.9043E+00,,1.0000E-12,,5.6512,5.6514,1.0159,,5.683,29.204,,,,,,,,,,,,
CalCOFI,2007SR,044,46,2007_044u,21-Jul-2020 09:44:32,21-Jul-2020 01:44:32,31.98872,-122.39339,086.7 090.0,086.7,090.0,499.000,503.112,,5.6997,,5.6994,,5.6996,34.2364,,34.2366,34.2379,,34.2395,34.2381,0.4015,,0.4018,0.4327,2.0419,,0.9334,0.5550,0.4939,17.461,17.7394,18.6345,88.793,,26.4209,22.5277,0.0336,,,,,,,,26.9919,,26.9931,,0.6340,85.3426,,7.524,,1.9043E+00,,1.0000E-12,,5.6571,5.6568,1.0159,,5.742,29.199,,,,,,,,,,,,
CalCOFI,2007SR,044,46,2007_044u,21-Jul-2020 09:44:33,21-Jul-2020 01:44:33,31.98872,-122.39338,086.7 090.0,086.7,090.0,498.000,502.102,,5.7092,,5.7086,,5.7089,34.2339,,34.2341,34.2354,,34.2370,34.2356,0.4029,,0.4033,0.4341,2.0411,,0.9315,0.5530,0.4936,17.519,17.8000,18.6949,88.761,,26.3409,22.5179,0.0331,,,,,,,,26.9888,,26.9901,,0.6342,85.3383,,7.524,,1.9043E+00,,1.0000E-12,,5.6666,5.6660,1.0159,,5.762,29.195,,,,,,,,,,,,
CalCOFI,2007SR,044,46,2007_044u,21-Jul-2020 09:44:34,21-Jul-2020 01:44:34,31.98872,-122.39338,086.7 090.0,086.7,090.0,497.000,501.093,,5.7142,,5.7144,,5.7143,34.2322,,34.2324,34.2332,,34.2348,34.2336,0.4095,,0.4102,0.4410,2.0363,,0.9201,0.5408,0.4909,17.810,18.1038,18.9978,88.551,,25.8158,22.4068,0.0332,,,,,,,,26.9868,,26.9876,,0.6342,85.3384,,7.524,,1.9043E+00,,1.0000E-12,,5.6717,5.6719,1.0159,,5.859,29.129,,,,,,,,,,,,
CalCOFI,2007SR,044,46,2007_044u,21-Jul-2020 09:44:34,21-Jul-2020 01:44:34,31.98872,-122.39339,086.7 090.0,086.7,090.0,496.000,500.083,,5.7172,,5.7173,,5.7173,34.2315,,34.2317,34.2327,,34.2343,34.2330,0.4104,,0.4111,0.4419,2.0287,,0.9019,0.5216,0.4818,17.845,18.1403,19.0342,88.221,,24.9905,22.0124,0.0328,,,,,,,,26.9859,,26.9868,,0.6342,85.3384,,7.524,,1.9043E+00,,1.0000E-12,,5.6748,5.6749,1.0159,,5.871,29.022,,,,,,,,,,,,
CalCOFI,2007SR,044,46,2007_044u,21-Jul-2020 09:44:35,21-Jul-2020 01:44:35,31.98872,-122.39340,086.7 090.0,086.7,090.0,495.000,499.074,,5.7195,,5.7196,,5.7196,34.2313,,34.2315,34.2325,,34.2341,34.2328,0.4053,,0.4058,0.4366,2.0381,,0.9244,0.5454,0.4910,17.626,17.9117,18.8062,88.630,,26.0133,22.4098,0.0333,,,,,,,,26.9854,,26.9863,,0.6342,85.3384,,7.524,,1.9043E+00,,1.0000E-12,,5.6772,5.6773,1.0159,,5.799,29.158,,,,,,,,,,,,
CalCOFI,2007SR,044,46,2007_044u,21-Jul-2020 09:44:36,21-Jul-2020 01:44:36,31.98872,-122.39340,086.7 090.0,086.7,090.0,494.000,498.064,,5.7234,,5.7239,,5.7237,34.2308,,34.2310,34.2319,,34.2335,34.2323,0.4102,,0.4109,0.4417,2.0366,,0.9208,0.5416,0.4917,17.839,18.1340,19.0280,88.564,,25.8483,22.4382,0.0330,,,,,,,,26.9845,,26.9853,,0.6347,85.3267,,7.524,,1.9043E+00,,1.0000E-12,,5.6812,5.6817,1.0159,,5.869,29.140,,,,,,,,,,,,
CalCOFI,2007SR,044,46,2007_044u,21-Jul-2020 09:44:37,21-Jul-2020 01:44:37,31.98872,-122.39340,086.7 090.0,086.7,090.0,493.000,497.055,,5.7265,,5.7267,,5.7266,34.2303,,34.2305,34.2314,,34.2330,34.2318,0.4147,,0.4156,0.4464,2.0300,,0.9050,0.5249,0.4857,18.032,18.3355,19.2289,88.276,,25.1281,22.1785,0.0319,,,,,,,,26.9837,,26.9846,,0.6344,85.3348,,7.524,,1.9043E+00,,1.0000E-12,,5.6843,5.6846,1.0159,,5.933,29.046,,,,,,,,,,,,
CalCOFI,2007SR,044,46,2007_044u,21-Jul-2020 09:44:38,21-Jul-2020 01:44:38,31.98872,-122.39340,086.7 090.0,086.7,090.0,492.000,496.046,,5.7339,,5.7343,,5.7341,34.2298,,34.2300,34.2310,,34.2326,34.2313,0.4191,,0.4202,0.4510,2.0331,,0.9124,0.5327,0.4919,18.225,18.5370,19.4298,88.413,,25.4707,22.4503,0.0328,,,,,,,,26.9824,,26.9833,,0.6342,85.3384,,7.524,,1.9043E+00,,1.0000E-12,,5.6918,5.6922,1.0159,,5.997,29.097,,,,,,,,,,,,
CalCOFI,2007SR,044,46,2007_044u,21-Jul-2020 09:44:39,21-Jul-2020 01:44:39,31.98872,-122.39340,086.7 090.0,086.7,090.0,491.000,495.036,,5.7484,,5.7489,,5.7487,34.2276,,34.2278,34.2287,,34.2303,34.2291,0.4218,,0.4230,0.4538,2.0321,,0.9100,0.5302,0.4920,18.343,18.6602,19.5526,88.369,,25.3606,22.4566,0.0320,,,,,,,,26.9789,,26.9797,,0.6342,85.3384,,7.524,,1.9043E+00,,1.0000E-12,,5.7064,5.7069,1.0159,,6.039,29.092,,,,,,,,,,,,
CalCOFI,2007SR,044,46,2007_044u,21-Jul-2020 09:44:40,21-Jul-2020 01:44:40,31.98872,-122.39340,086.7 090.0,086.7,090.0,490.000,494.027,,5.7511,,5.7515,,5.7513,34.2274,,34.2276,34.2284,,34.2300,34.2288,0.4227,,0.4240,0.4547,2.0317,,0.9091,0.5292,0.4920,18.383,18.7019,19.5943,88.352,,25.3181,22.4562,0.0322,,,,,,,,26.9784,,26.9791,,0.6374,85.2702,,7.524,,1.9043E+00,,1.0000E-12,,5.7091,5.7095,1.0159,,6.052,29.088,,,,,,,,,,,,
CalCOFI,2007SR,044,46,2007_044u,21-Jul-2020 09:44:41,21-Jul-2020 01:44:41,31.98872,-122.39340,086.7 090.0,086.7,090.0,489.000,493.017,,5.7545,,5.7548,,5.7547,34.2267,,34.2269,34.2279,,34.2295,34.2282,0.4192,,0.4203,0.4511,2.0299,,0.9048,0.5246,0.4879,18.230,18.5422,19.4350,88.274,,25.1231,22.2791,0.0324,,,,,,,,26.9774,,26.9783,,0.6344,85.3342,,7.524,,1.9043E+00,,1.0000E-12,,5.7126,5.7129,1.0159,,6.002,29.064,,,,,,,,,,,,
CalCOFI,2007SR,044,46,2007_044u,21-Jul-2020 09:44:43,21-Jul-2020 01:44:43,31.98872,-122.39340,086.7 090.0,086.7,090.0,488.000,492.008,,5.7578,,5.7579,,5.7579,34.2259,,34.2261,34.2271,,34.2287,34.2274,0.4260,,0.4274,0.4581,2.0300,,0.9050,0.5249,0.4915,18.527,18.8522,19.7442,88.279,,25.1356,22.4399,0.0329,,,,,,,,26.9764,,26.9773,,0.6342,85.3386,,7.525,,1.9043E+00,,1.0000E-12,,5.7160,5.7161,1.0159,,6.100,29.067,,,,,,,,,,,,
CalCOFI,2007SR,044,46,2007_044u,21-Jul-2020 09:44:43,21-Jul-2020 01:44:43,31.98872,-122.39340,086.7 090.0,086.7,090.0,487.000,490.998,,5.7603,,5.7604,,5.7604,34.2253,,34.2255,34.2263,,34.2279,34.2267,0.4250,,0.4264,0.4571,2.0320,,0.9098,0.5299,0.4935,18.484,18.8073,19.6994,88.366,,25.3531,22.5263,0.0330,,,,,,,,26.9755,,26.9764,,0.6342,85.3384,,7.525,,1.9043E+00,,1.0000E-12,,5.7186,5.7186,1.0159,,6.086,29.098,,,,,,,,,,,,
CalCOFI,2007SR,044,46,2007_044u,21-Jul-2020 09:44:44,21-Jul-2020 01:44:44,31.98872,-122.39340,086.7 090.0,086.7,090.0,486.000,489.989,,5.7617,,5.7620,,5.7619,34.2251,,34.2253,34.2260,,34.2276,34.2265,0.4302,,0.4318,0.4625,2.0301,,0.9053,0.5251,0.4938,18.710,19.0433,19.9347,88.283,,25.1456,22.5402,0.0327,,,,,,,,26.9752,,26.9759,,0.6342,85.3384,,7.525,,1.9043E+00,,1.0000E-12,,5.7201,5.7203,1.0159,,6.161,29.072,,,,,,,,,,,,
CalCOFI,2007SR,044,46,2007_044u,21-Jul-2020 09:44:45,21-Jul-2020 01:44:45,31.98872,-122.39340,086.7 090.0,086.7,090.0,485.000,488.980,,5.7635,,5.7638,,5.7637,34.2246,,34.2248,34.2257,,34.2273,34.2261,0.4263,,0.4277,0.4584,2.0290,,0.9026,0.5224,0.4904,18.540,18.8658,19.7577,88.234,,25.0231,22.3904,0.0336,,,,,,,,26.9746,,26.9754,,0.6345,85.3312,,7.525,,1.9043E+00,,1.0000E-12,,5.7220,5.7223,1.0159,,6.105,29.057,,,,,,,,,,,,
CalCOFI,2007SR,044,46,2007_044u,21-Jul-2020 09:44:47,21-Jul-2020 01:44:47,31.98872,-122.39340,086.7 090.0,086.7,090.0,484.000,487.970,,5.7654,,5.7657,,5.7656,34.2243,,34.2245,34.2252,,34.2268,34.2257,0.4340,,0.4358,0.4664,2.0287,,0.9019,0.5216,0.4940,18.872,19.2124,20.1033,88.221,,24.9905,22.5469,0.0329,,,,,,,,26.9741,,26.9748,,0.6342,85.3385,,7.527,,1.9043E+00,,1.0000E-12,,5.7239,5.7242,1.0159,,6.215,29.054,,,,,,,,,,,,
CalCOFI,2007SR,044,46,2007_044u,21-Jul-2020 09:44:47,21-Jul-2020 01:44:47,31.98872,-122.39340,086.7 090.0,086.7,090.0,483.000,486.961,,5.7667,,5.7669,,5.7668,34.2239,,34.2241,34.2250,,34.2266,34.2254,0.4400,,0.4421,0.4727,2.0273,,0.8986,0.5181,0.4954,19.133,19.4848,20.3750,88.161,,24.8405,22.6078,0.0322,,,,,,,,26.9736,,26.9745,,0.6342,85.3384,,7.527,,1.9043E+00,,1.0000E-12,,5.7253,5.7254,1.0159,,6.301,29.034,,,,,,,,,,,,
CalCOFI,2007SR,044,46,2007_044u,21-Jul-2020 09:44:48,21-Jul-2020 01:44:48,31.98872,-122.39340,086.7 090.0,086.7,090.0,482.000,485.952,,5.7720,,5.7718,,5.7719,34.2228,,34.2230,34.2238,,34.2254,34.2242,0.4392,,0.4412,0.4719,2.0225,,0.8871,0.5059,0.4889,19.098,19.4483,20.3386,87.953,,24.3204,22.3295,0.0322,,,,,,,,26.9721,,26.9729,,0.6342,85.3384,,7.527,,1.9043E+00,,1.0000E-12,,5.7307,5.7305,1.0159,,6.290,28.969,,,,,,,,,,,,
CalCOFI,2007SR,044,46,2007_044u,21-Jul-2020 09:44:49,21-Jul-2020 01:44:49,31.98872,-122.39340,086.7 090.0,086.7,090.0,481.000,484.942,,5.7842,,5.7814,,5.7828,34.2203,,34.2205,34.2216,,34.2232,34.2219,0.4462,,0.4485,0.4791,2.0268,,0.8974,0.5168,0.4980,19.406,19.7698,20.6592,88.141,,24.7905,22.7249,0.0316,,,,,,,,26.9686,,26.9700,,0.6342,85.3384,,7.527,,1.9043E+00,,1.0000E-12,,5.7429,5.7401,1.0159,,6.393,29.037,,,,,,,,,,,,
CalCOFI,2007SR,044,46,2007_044u,21-Jul-2020 09:44:50,21-Jul-2020 01:44:50,31.98872,-122.39340,086.7 090.0,086.7,090.0,480.000,483.933,,5.7982,,5.7969,,5.7976,34.2189,,34.2191,34.2207,,34.2223,34.2207,0.4496,,0.4521,0.4827,2.0240,,0.8907,0.5097,0.4962,19.554,19.9243,20.8133,88.017,,24.4804,22.6469,0.0334,,,,,,,,26.9658,,26.9674,,0.6342,85.3384,,7.528,,1.9043E+00,,1.0000E-12,,5.7569,5.7557,1.0159,,6.444,29.006,,,,,,,,,,,,
CalCOFI,2007SR,044,46,2007_044u,21-Jul-2020 09:44:51,21-Jul-2020 01:44:51,31.98872,-122.39340,086.7 090.0,086.7,090.0,479.000,482.923,,5.8168,,5.8174,,5.8171,34.2170,,34.2172,34.2181,,34.2197,34.2185,0.4594,,0.4623,0.4928,2.0197,,0.8804,0.4988,0.4958,19.978,20.3669,21.2546,87.831,,24.0153,22.6350,0.0327,,,,,,,,26.9619,,26.9628,,0.6342,85.3384,,7.528,,1.9043E+00,,1.0000E-12,,5.7756,5.7762,1.0159,,6.587,28.958,,,,,,,,,,,,
CalCOFI,2007SR,044,46,2007_044u,21-Jul-2020 09:44:53,21-Jul-2020 01:44:53,31.98872,-122.39340,086.7 090.0,086.7,090.0,478.000,481.914,,5.8221,,5.8210,,5.8216,34.2168,,34.2170,34.2186,,34.2202,34.2186,0.4605,,0.4635,0.4940,2.0193,,0.8795,0.4978,0.4959,20.024,20.4150,21.3025,87.816,,23.9778,22.6402,0.0334,,,,,,,,26.9612,,26.9627,,0.6342,85.3384,,7.529,,1.9043E+00,,1.0000E-12,,5.7810,5.7798,1.0159,,6.603,28.956,,,,,,,,,,,,
CalCOFI,2007SR,044,46,2007_044u,21-Jul-2020 09:44:54,21-Jul-2020 01:44:54,31.98872,-122.39340,086.7 090.0,086.7,090.0,477.000,480.905,,5.8478,,5.8473,,5.8476,34.2136,,34.2138,34.2148,,34.2164,34.2151,0.4588,,0.4617,0.4922,2.0197,,0.8804,0.4988,0.4955,19.952,20.3398,21.2276,87.834,,24.0228,22.6252,0.0333,,,,,,,,26.9554,,26.9565,,0.6342,85.3384,,7.528,,1.9043E+00,,1.0000E-12,,5.8066,5.8061,1.0159,,6.583,28.979,,,,,,,,,,,,
CalCOFI,2007SR,044,46,2007_044u,21-Jul-2020 09:44:55,21-Jul-2020 01:44:55,31.98872,-122.39340,086.7 090.0,086.7,090.0,476.000,479.895,,5.8483,,5.8472,,5.8478,34.2134,,34.2136,34.2148,,34.2164,34.2150,0.4640,,0.4671,0.4976,2.0231,,0.8885,0.5074,0.5025,20.176,20.5736,21.4607,87.979,,24.3854,22.9231,0.0336,,,,,,,,26.9552,,26.9564,,0.6342,85.3384,,7.529,,1.9043E+00,,1.0000E-12,,5.8072,5.8061,1.0159,,6.657,29.027,,,,,,,,,,,,
CalCOFI,2007SR,044,46,2007_044u,21-Jul-2020 09:44:55,21-Jul-2020 01:44:55,31.98872,-122.39340,086.7 090.0,086.7,090.0,475.000,478.886,,5.8445,,5.8447,,5.8446,34.2135,,34.2137,34.2142,,34.2158,34.2148,0.4661,,0.4693,0.4998,2.0217,,0.8852,0.5039,0.5019,20.267,20.6686,21.5555,87.918,,24.2328,22.8942,0.0329,,,,,,,,26.9557,,26.9563,,0.6342,85.3384,,7.529,,1.9043E+00,,1.0000E-12,,5.8035,5.8038,1.0159,,6.686,29.005,,,,,,,,,,,,
CalCOFI,2007SR,044,46,2007_044u,21-Jul-2020 09:44:56,21-Jul-2020 01:44:56,31.98872,-122.39340,086.7 090.0,086.7,090.0,474.000,477.877,,5.8407,,5.8387,,5.8397,34.2141,,34.2143,34.2153,,34.2169,34.2156,0.4685,,0.4718,0.5023,2.0237,,0.8900,0.5089,0.5056,20.374,20.7803,21.6669,88.005,,24.4504,23.0587,0.0330,,,,,,,,26.9567,,26.9579,,0.6342,85.3384,,7.529,,1.9043E+00,,1.0000E-12,,5.7998,5.7979,1.0159,,6.721,29.029,,,,,,,,,,,,
CalCOFI,2007SR,044,46,2007_044u,21-Jul-2020 09:44:57,21-Jul-2020 01:44:57,31.98872,-122.39340,086.7 090.0,086.7,090.0,473.000,476.867,,5.8490,,5.8483,,5.8487,34.2138,,34.2140,34.2149,,34.2165,34.2153,0.4756,,0.4793,0.5097,2.0232,,0.8888,0.5077,0.5087,20.684,21.1039,21.9896,87.986,,24.4029,23.1963,0.0330,,,,,,,,26.9554,,26.9564,,0.6342,85.3384,,7.529,,1.9043E+00,,1.0000E-12,,5.8082,5.8075,1.0159,,6.824,29.030,,,,,,,,,,,,
CalCOFI,2007SR,044,46,2007_044u,21-Jul-2020 09:44:58,21-Jul-2020 01:44:58,31.98873,-122.39340,086.7 090.0,086.7,090.0,472.000,475.858,,5.8738,,5.8665,,5.8702,34.2110,,34.2112,34.2135,,34.2151,34.2132,0.4732,,0.4767,0.5072,2.0208,,0.8831,0.5016,0.5044,20.580,20.9954,21.8813,87.882,,24.1428,23.0121,0.0326,,,,,,,,26.9501,,26.9530,,0.6346,85.3294,,7.529,,1.9043E+00,,1.0000E-12,,5.8330,5.8257,1.0159,,6.794,29.007,,,,,,,,,,,,
CalCOFI,2007SR,044,46,2007_044u,21-Jul-2020 09:44:59,21-Jul-2020 01:44:59,31.98874,-122.39340,086.7 090.0,086.7,090.0,471.000,474.849,,5.8695,,5.8700,,5.8698,34.2103,,34.2105,34.2114,,34.2130,34.2118,0.4746,,0.4782,0.5086,2.0194,,0.8797,0.4981,0.5034,20.641,21.0590,21.9448,87.819,,23.9853,22.9651,0.0327,,,,,,,,26.9501,,26.9509,,0.6342,85.3384,,7.529,,1.9043E+00,,1.0000E-12,,5.8288,5.8293,1.0159,,6.813,28.988,,,,,,,,,,,,
CalCOFI,2007SR,044,46,2007_044u,21-Jul-2020 09:45:01,21-Jul-2020 01:45:01,31.98874,-122.39340,086.7 090.0,086.7,090.0,470.000,473.839,,5.8813,,5.8787,,5.8800,34.2091,,34.2093,34.2106,,34.2122,34.2108,0.4704,,0.4738,0.5043,2.0211,,0.8838,0.5024,0.5034,20.455,20.8649,21.7512,87.895,,24.1753,22.9633,0.0337,,,,,,,,26.9477,,26.9491,,0.6342,85.3384,,7.529,,1.9043E+00,,1.0000E-12,,5.8406,5.8381,1.0159,,6.754,29.019,,,,,,,,,,,,
CalCOFI,2007SR,044,46,2007_044u,21-Jul-2020 09:45:02,21-Jul-2020 01:45:02,31.98874,-122.39340,086.7 090.0,086.7,090.0,469.000,472.830,,5.8723,,5.8725,,5.8724,34.2079,,34.2081,34.2089,,34.2105,34.2093,0.4746,,0.4782,0.5086,2.0199,,0.8809,0.4993,0.5040,20.638,21.0559,21.9417,87.841,,24.0403,22.9910,0.0331,,,,,,,,26.9478,,26.9486,,0.6342,85.3384,,7.529,,1.9043E+00,,1.0000E-12,,5.8317,5.8319,1.0159,,6.813,28.997,,,,,,,,,,,,
CalCOFI,2007SR,044,46,2007_044u,21-Jul-2020 09:45:03,21-Jul-2020 01:45:03,31.98874,-122.39340,086.7 090.0,086.7,090.0,468.000,471.821,,5.8613,,5.8612,,5.8613,34.2093,,34.2095,34.2105,,34.2121,34.2108,0.4776,,0.4813,0.5118,2.0220,,0.8859,0.5046,0.5082,20.769,21.1927,22.0780,87.934,,24.2729,23.1755,0.0328,,,,,,,,26.9503,,26.9512,,0.6342,85.3384,,7.529,,1.9043E+00,,1.0000E-12,,5.8209,5.8208,1.0159,,6.854,29.020,,,,,,,,,,,,
CalCOFI,2007SR,044,46,2007_044u,21-Jul-2020 09:45:04,21-Jul-2020 01:45:04,31.98874,-122.39340,086.7 090.0,086.7,090.0,467.000,470.811,,5.8668,,5.8677,,5.8673,34.2092,,34.2094,34.2105,,34.2121,34.2108,0.4781,,0.4819,0.5123,2.0210,,0.8835,0.5021,0.5072,20.793,21.2177,22.1030,87.890,,24.1628,23.1329,0.0334,,,,,,,,26.9495,,26.9504,,0.6342,85.3384,,7.529,,1.9043E+00,,1.0000E-12,,5.8265,5.8274,1.0159,,6.863,29.010,,,,,,,,,,,,
CalCOFI,2007SR,044,46,2007_044u,21-Jul-2020 09:45:05,21-Jul-2020 01:45:05,31.98874,-122.39340,086.7 090.0,086.7,090.0,466.000,469.802,,5.8823,,5.8857,,5.8840,34.2092,,34.2094,34.2102,,34.2118,34.2106,0.4822,,0.4862,0.5165,2.0209,,0.8833,0.5019,0.5092,20.972,21.4046,22.2894,87.883,,24.1453,23.2174,0.0329,,,,,,,,26.9475,,26.9479,,0.6342,85.3384,,7.529,,1.9043E+00,,1.0000E-12,,5.8420,5.8454,1.0159,,6.925,29.020,,,,,,,,,,,,
CalCOFI,2007SR,044,46,2007_044u,21-Jul-2020 09:45:06,21-Jul-2020 01:45:06,31.98874,-122.39340,086.7 090.0,086.7,090.0,465.000,468.793,,5.8893,,5.8901,,5.8897,34.2084,,34.2086,34.2094,,34.2110,34.2098,0.4861,,0.4902,0.5206,2.0230,,0.8883,0.5072,0.5139,21.141,21.5810,22.4653,87.978,,24.3829,23.4241,0.0314,,,,,,,,26.9460,,26.9468,,0.6342,85.3384,,7.529,,1.9043E+00,,1.0000E-12,,5.8490,5.8499,1.0159,,6.981,29.054,,,,,,,,,,,,
CalCOFI,2007SR,044,46,2007_044u,21-Jul-2020 09:45:07,21-Jul-2020 01:45:07,31.98874,-122.39340,086.7 090.0,086.7,090.0,464.000,467.784,,5.8912,,5.8917,,5.8915,34.2082,,34.2084,34.2093,,34.2109,34.2097,0.4889,,0.4932,0.5235,2.0213,,0.8842,0.5029,0.5132,21.262,21.7073,22.5913,87.904,,24.1978,23.3946,0.0338,,,,,,,,26.9457,,26.9465,,0.6342,85.3384,,7.529,,1.9043E+00,,1.0000E-12,,5.8511,5.8515,1.0159,,7.022,29.031,,,,,,,,,,,,
CalCOFI,2007SR,044,46,2007_044u,21-Jul-2020 09:45:07,21-Jul-2020 01:45:07,31.98874,-122.39340,086.7 090.0,086.7,090.0,463.000,466.774,,5.8938,,5.8935,,5.8937,34.2084,,34.2086,34.2095,,34.2111,34.2099,0.4927,,0.4971,0.5274,2.0228,,0.8878,0.5067,0.5171,21.426,21.8785,22.7620,87.967,,24.3554,23.5587,0.0330,,,,,,,,26.9454,,26.9464,,0.6342,85.3384,,7.529,,1.9043E+00,,1.0000E-12,,5.8537,5.8534,1.0159,,7.076,29.053,,,,,,,,,,,,
CalCOFI,2007SR,044,46,2007_044u,21-Jul-2020 09:45:08,21-Jul-2020 01:45:08,31.98874,-122.39340,086.7 090.0,086.7,090.0,462.000,465.765,,5.9111,,5.9119,,5.9115,34.2074,,34.2076,34.2086,,34.2102,34.2089,0.4949,,0.4994,0.5297,2.0228,,0.8878,0.5067,0.5182,21.522,21.9787,22.8619,87.968,,24.3579,23.6099,0.0329,,,,,,,,26.9425,,26.9434,,0.6347,85.3283,,7.529,,1.9043E+00,,1.0000E-12,,5.8711,5.8719,1.0159,,7.111,29.065,,,,,,,,,,,,